Time,TemperatureF,DewpointF,PressureIn,WindDirection,WindDirectionDegrees,WindSpeedMPH,WindSpeedGustMPH,Humidity,HourlyPrecipIn,Conditions,Clouds,dailyrainin,SolarRadiationWatts/m^2,SoftwareType,DateUTC
2013-10-13 00:02:00,35.0,19.0,-100.00,ENE,69,2.0,3.0,52,0.00,,,0.00,0.000000,,2013-10-13 06:02:00,
2013-10-13 00:12:00,35.0,19.0,-100.00,ENE,69,2.0,3.0,52,0.00,,,0.00,0.000000,,2013-10-13 06:12:00,
2013-10-13 00:52:00,35.0,19.0,-100.00,East,92,2.0,5.0,51,0.00,,,0.00,0.000000,,2013-10-13 06:52:00,
2013-10-13 01:02:00,35.0,19.0,-100.00,East,92,2.0,5.0,51,0.00,,,0.00,0.000000,,2013-10-13 07:02:00,
2013-10-13 01:11:00,35.0,19.0,-100.00,East,92,2.0,5.0,51,0.00,,,0.00,0.000000,,2013-10-13 07:11:00,
2013-10-13 01:21:00,35.0,19.0,-100.00,East,92,2.0,5.0,51,0.00,,,0.00,0.000000,,2013-10-13 07:21:00,
2013-10-13 01:22:00,36.0,21.0,-100.00,South,172,2.0,4.0,54,0.00,,,0.00,0.000000,,2013-10-13 07:22:00,
2013-10-13 01:52:00,36.0,21.0,-100.00,South,172,2.0,4.0,54,0.00,,,0.00,0.000000,,2013-10-13 07:52:00,
2013-10-13 02:02:00,36.0,21.0,-100.00,South,172,2.0,4.0,54,0.00,,,0.00,0.000000,,2013-10-13 08:02:00,
2013-10-13 02:12:00,36.0,21.0,-100.00,South,172,2.0,4.0,54,0.00,,,0.00,0.000000,,2013-10-13 08:12:00,
2013-10-13 02:22:00,36.0,21.0,-100.00,ESE,113,2.0,4.0,55,0.00,,,0.00,0.000000,,2013-10-13 08:22:00,
2013-10-13 02:52:00,36.0,21.0,-100.00,ESE,113,2.0,4.0,55,0.00,,,0.00,0.000000,,2013-10-13 08:52:00,
2013-10-13 03:02:00,36.0,21.0,-100.00,ESE,113,2.0,4.0,55,0.00,,,0.00,0.000000,,2013-10-13 09:02:00,
2013-10-13 03:11:00,36.0,21.0,-100.00,ESE,113,2.0,4.0,55,0.00,,,0.00,0.000000,,2013-10-13 09:11:00,
2013-10-13 03:22:00,36.0,24.0,-100.00,East,101,2.0,6.0,62,0.00,,,0.00,0.000000,,2013-10-13 09:22:00,
2013-10-13 03:53:00,36.0,24.0,-100.00,East,101,2.0,6.0,62,0.00,,,0.00,0.000000,,2013-10-13 09:53:00,
2013-10-13 04:03:00,36.0,24.0,-100.00,East,101,2.0,6.0,62,0.00,,,0.00,0.000000,,2013-10-13 10:03:00,
2013-10-13 04:13:00,36.0,24.0,-100.00,East,101,2.0,6.0,62,0.00,,,0.00,0.000000,,2013-10-13 10:13:00,
2013-10-13 04:22:00,34.0,24.0,-100.00,ENE,74,2.0,7.0,66,0.00,,,0.00,0.000000,,2013-10-13 10:22:00,
2013-10-13 04:53:00,34.0,24.0,-100.00,ENE,74,2.0,7.0,66,0.00,,,0.00,0.000000,,2013-10-13 10:53:00,
2013-10-13 05:03:00,34.0,24.0,-100.00,ENE,74,2.0,7.0,66,0.00,,,0.00,0.000000,,2013-10-13 11:03:00,
2013-10-13 05:12:00,34.0,24.0,-100.00,ENE,74,2.0,7.0,66,0.00,,,0.00,0.000000,,2013-10-13 11:12:00,
2013-10-13 05:52:00,34.0,25.0,-100.00,ENE,70,2.0,5.0,68,0.00,,,0.00,0.000000,,2013-10-13 11:52:00,
2013-10-13 06:01:00,34.0,25.0,-100.00,ENE,70,2.0,5.0,68,0.00,,,0.00,0.000000,,2013-10-13 12:01:00,
2013-10-13 06:12:00,34.0,25.0,-100.00,ENE,70,2.0,5.0,68,0.00,,,0.00,0.000000,,2013-10-13 12:12:00,
2013-10-13 06:21:00,34.0,25.0,-100.00,ENE,70,2.0,5.0,68,0.00,,,0.00,0.000000,,2013-10-13 12:21:00,
2013-10-13 06:22:00,34.0,26.0,-100.00,East,101,2.0,4.0,73,0.00,,,0.00,0.000000,,2013-10-13 12:22:00,
2013-10-13 06:52:00,34.0,26.0,-100.00,East,101,2.0,4.0,73,0.00,,,0.00,0.000000,,2013-10-13 12:52:00,
2013-10-13 07:02:00,34.0,26.0,-100.00,East,101,2.0,4.0,73,0.00,,,0.00,0.000000,,2013-10-13 13:02:00,
2013-10-13 07:12:00,34.0,26.0,-100.00,East,101,2.0,4.0,73,0.00,,,0.00,0.000000,,2013-10-13 13:12:00,
2013-10-13 07:52:00,35.0,27.0,-100.00,East,86,2.0,4.0,72,0.00,,,0.00,1.000000,,2013-10-13 13:52:00,
2013-10-13 08:02:00,35.0,27.0,-100.00,East,86,2.0,4.0,72,0.00,,,0.00,1.000000,,2013-10-13 14:02:00,
2013-10-13 08:11:00,35.0,27.0,-100.00,East,86,2.0,4.0,72,0.00,,,0.00,1.000000,,2013-10-13 14:11:00,
2013-10-13 08:21:00,35.0,27.0,-100.00,East,86,2.0,4.0,72,0.00,,,0.00,1.000000,,2013-10-13 14:21:00,
2013-10-13 08:22:00,39.0,29.0,-100.00,ESE,109,3.0,4.0,66,0.00,,,0.00,83.000000,,2013-10-13 14:22:00,
2013-10-13 08:52:00,39.0,29.0,-100.00,ESE,109,3.0,4.0,66,0.00,,,0.00,83.000000,,2013-10-13 14:52:00,
2013-10-13 09:01:00,39.0,29.0,-100.00,ESE,109,3.0,4.0,66,0.00,,,0.00,83.000000,,2013-10-13 15:01:00,
2013-10-13 09:12:00,39.0,29.0,-100.00,ESE,109,3.0,4.0,66,0.00,,,0.00,83.000000,,2013-10-13 15:12:00,
2013-10-13 09:22:00,46.0,31.0,-100.00,East,81,3.0,4.0,56,0.00,,,0.00,316.000000,,2013-10-13 15:22:00,
2013-10-13 10:12:00,46.0,31.0,-100.00,East,81,3.0,4.0,56,0.00,,,0.00,316.000000,,2013-10-13 16:12:00,
2013-10-13 10:22:00,50.0,30.0,-100.00,ESE,114,6.0,9.0,46,0.00,,,0.00,471.000000,,2013-10-13 16:22:00,
2013-10-13 10:54:00,50.0,30.0,-100.00,ESE,114,6.0,9.0,46,0.00,,,0.00,471.000000,,2013-10-13 16:54:00,
2013-10-13 11:03:00,50.0,30.0,-100.00,ESE,114,6.0,9.0,46,0.00,,,0.00,471.000000,,2013-10-13 17:03:00,
2013-10-13 11:13:00,50.0,30.0,-100.00,ESE,114,6.0,9.0,46,0.00,,,0.00,471.000000,,2013-10-13 17:13:00,
2013-10-13 11:22:00,52.0,28.0,-100.00,SE,129,4.0,10.0,39,0.00,,,0.00,614.000000,,2013-10-13 17:22:00,
2013-10-13 11:53:00,52.0,28.0,-100.00,SE,129,4.0,10.0,39,0.00,,,0.00,614.000000,,2013-10-13 17:53:00,
2013-10-13 12:02:00,52.0,28.0,-100.00,SE,129,4.0,10.0,39,0.00,,,0.00,614.000000,,2013-10-13 18:02:00,
2013-10-13 12:12:00,52.0,28.0,-100.00,SE,129,4.0,10.0,39,0.00,,,0.00,614.000000,,2013-10-13 18:12:00,
2013-10-13 12:22:00,54.0,27.0,-100.00,SE,141,7.0,11.0,35,0.00,,,0.00,666.000000,,2013-10-13 18:22:00,
2013-10-13 12:52:00,54.0,27.0,-100.00,SE,141,7.0,11.0,35,0.00,,,0.00,666.000000,,2013-10-13 18:52:00,
2013-10-13 13:02:00,54.0,27.0,-100.00,SE,141,7.0,11.0,35,0.00,,,0.00,666.000000,,2013-10-13 19:02:00,
2013-10-13 13:11:00,54.0,27.0,-100.00,SE,141,7.0,11.0,35,0.00,,,0.00,666.000000,,2013-10-13 19:11:00,
2013-10-13 13:22:00,54.0,25.0,-100.00,SE,146,6.0,11.0,32,0.00,,,0.00,891.000000,,2013-10-13 19:22:00,
2013-10-13 13:53:00,54.0,25.0,-100.00,SE,146,6.0,11.0,32,0.00,,,0.00,891.000000,,2013-10-13 19:53:00,
2013-10-13 14:02:00,54.0,25.0,-100.00,SE,146,6.0,11.0,32,0.00,,,0.00,891.000000,,2013-10-13 20:02:00,
2013-10-13 14:12:00,54.0,25.0,-100.00,SE,146,6.0,11.0,32,0.00,,,0.00,891.000000,,2013-10-13 20:12:00,
2013-10-13 14:52:00,53.0,28.0,-100.00,East,92,3.0,10.0,38,0.00,,,0.00,409.000000,,2013-10-13 20:52:00,
2013-10-13 15:02:00,53.0,28.0,-100.00,East,92,3.0,10.0,38,0.00,,,0.00,409.000000,,2013-10-13 21:02:00,
2013-10-13 15:11:00,53.0,28.0,-100.00,East,92,3.0,10.0,38,0.00,,,0.00,409.000000,,2013-10-13 21:11:00,
2013-10-13 15:21:00,53.0,28.0,-100.00,East,92,3.0,10.0,38,0.00,,,0.00,409.000000,,2013-10-13 21:21:00,
2013-10-13 15:22:00,55.0,23.0,-100.00,WSW,242,5.0,9.0,28,0.00,,,0.00,300.000000,,2013-10-13 21:22:00,
2013-10-13 15:55:00,55.0,23.0,-100.00,WSW,242,5.0,9.0,28,0.00,,,0.00,300.000000,,2013-10-13 21:55:00,
2013-10-13 16:03:00,55.0,23.0,-100.00,WSW,242,5.0,9.0,28,0.00,,,0.00,300.000000,,2013-10-13 22:03:00,
2013-10-13 16:13:00,55.0,23.0,-100.00,WSW,242,5.0,9.0,28,0.00,,,0.00,300.000000,,2013-10-13 22:13:00,
2013-10-13 16:22:00,55.0,24.0,-100.00,SSE,162,3.0,7.0,30,0.00,,,0.00,190.000000,,2013-10-13 22:22:00,
2013-10-13 16:53:00,55.0,24.0,-100.00,SSE,162,3.0,7.0,30,0.00,,,0.00,190.000000,,2013-10-13 22:53:00,
2013-10-13 17:03:00,55.0,24.0,-100.00,SSE,162,3.0,7.0,30,0.00,,,0.00,190.000000,,2013-10-13 23:03:00,
2013-10-13 17:12:00,55.0,24.0,-100.00,SSE,162,3.0,7.0,30,0.00,,,0.00,190.000000,,2013-10-13 23:12:00,
2013-10-13 17:52:00,53.0,26.0,-100.00,WSW,256,5.0,11.0,35,0.00,,,0.00,155.000000,,2013-10-13 23:52:00,
2013-10-13 18:01:00,53.0,26.0,-100.00,WSW,256,5.0,11.0,35,0.00,,,0.00,155.000000,,2013-10-14 00:01:00,
2013-10-13 18:12:00,53.0,26.0,-100.00,WSW,256,5.0,11.0,35,0.00,,,0.00,155.000000,,2013-10-14 00:12:00,
2013-10-13 18:21:00,53.0,26.0,-100.00,WSW,256,5.0,11.0,35,0.00,,,0.00,155.000000,,2013-10-14 00:21:00,
2013-10-13 18:52:00,49.0,29.0,-100.00,SW,231,5.0,10.0,46,0.00,,,0.00,148.000000,,2013-10-14 00:52:00,
2013-10-13 19:02:00,49.0,29.0,-100.00,SW,231,5.0,10.0,46,0.00,,,0.00,148.000000,,2013-10-14 01:02:00,
2013-10-13 19:11:00,49.0,29.0,-100.00,SW,231,5.0,10.0,46,0.00,,,0.00,148.000000,,2013-10-14 01:11:00,
2013-10-13 19:21:00,49.0,29.0,-100.00,SW,231,5.0,10.0,46,0.00,,,0.00,148.000000,,2013-10-14 01:21:00,
2013-10-13 19:22:00,43.0,31.0,-100.00,SSW,196,2.0,10.0,63,0.00,,,0.00,1.000000,,2013-10-14 01:22:00,
2013-10-13 19:52:00,43.0,31.0,-100.00,SSW,196,2.0,10.0,63,0.00,,,0.00,1.000000,,2013-10-14 01:52:00,
2013-10-13 20:02:00,43.0,31.0,-100.00,SSW,196,2.0,10.0,63,0.00,,,0.00,1.000000,,2013-10-14 02:02:00,
2013-10-13 20:11:00,43.0,31.0,-100.00,SSW,196,2.0,10.0,63,0.00,,,0.00,1.000000,,2013-10-14 02:11:00,
2013-10-13 20:22:00,43.0,31.0,-100.00,SSE,154,2.0,5.0,63,0.00,,,0.00,0.000000,,2013-10-14 02:22:00,
2013-10-13 20:52:00,43.0,31.0,-100.00,SSE,154,2.0,5.0,63,0.00,,,0.00,0.000000,,2013-10-14 02:52:00,
2013-10-13 21:02:00,43.0,31.0,-100.00,SSE,154,2.0,5.0,63,0.00,,,0.00,0.000000,,2013-10-14 03:02:00,
2013-10-13 21:12:00,43.0,31.0,-100.00,SSE,154,2.0,5.0,63,0.00,,,0.00,0.000000,,2013-10-14 03:12:00,
2013-10-13 21:22:00,41.0,31.0,-100.00,NW,311,2.0,3.0,66,0.00,,,0.00,0.000000,,2013-10-14 03:22:00,
2013-10-13 21:55:00,41.0,31.0,-100.00,NW,311,2.0,3.0,66,0.00,,,0.00,0.000000,,2013-10-14 03:55:00,
2013-10-13 22:04:00,41.0,31.0,-100.00,NW,311,2.0,3.0,66,0.00,,,0.00,0.000000,,2013-10-14 04:04:00,
2013-10-13 22:14:00,41.0,31.0,-100.00,NW,311,2.0,3.0,66,0.00,,,0.00,0.000000,,2013-10-14 04:14:00,
2013-10-13 22:22:00,39.0,31.0,-100.00,SE,140,2.0,4.0,72,0.00,,,0.00,0.000000,,2013-10-14 04:22:00,
2013-10-13 22:54:00,39.0,31.0,-100.00,SE,140,2.0,4.0,72,0.00,,,0.00,0.000000,,2013-10-14 04:54:00,
2013-10-13 23:03:00,39.0,31.0,-100.00,SE,140,2.0,4.0,72,0.00,,,0.00,0.000000,,2013-10-14 05:03:00,
2013-10-13 23:12:00,39.0,31.0,-100.00,SE,140,2.0,4.0,72,0.00,,,0.00,0.000000,,2013-10-14 05:12:00,
2013-10-13 23:22:00,42.0,29.0,-100.00,SW,220,3.0,9.0,60,0.00,,,0.00,0.000000,,2013-10-14 05:22:00,
2013-10-13 23:52:00,42.0,29.0,-100.00,SW,220,3.0,9.0,60,0.00,,,0.00,0.000000,,2013-10-14 05:52:00,